Zurück zum Katalog

INSAT 2A

AktivKommunikationGEO
NORAD 22027·PAYLOAD·🇮🇳 India

Gestartet Jul 9, 1992 von Guiana Space Centre

Loading…

TLE

AktuellSource: Space-Track

Epoche: Sep 14, 2026, 15:01 UTC

1 22027U 92041A   26257.62636647 -.00000212  00000-0  00000-0 0  9997
2 22027  14.4720 351.1304 0010672 275.1362 105.5267  1.00232105124953

Verfolge INSAT 2A in Echtzeit mit AllMySat

Download on the App Store